Home   Weather   Whitby   Past weeks

Flag for Canada Past Weather in Whitby, Ontario, Canada — Yesterday and Last 2 Weeks

Now
50 °F

Clear.


Feels Like: 47 °F
Forecast: 47 / 64 °F
Wind: 7 mph from North

Location: Toronto Buttonville

Current Time: Sep 25, 2016 at 1:31:31 AM

Latest Report: Sep 25, 2016 at 1:00 AM


Visibility: 15 mi

Pressure: 30.27 "Hg

Humidity: 76%

Dew Point: 43 °F

Location of WhitbyLocation

Past Weather in Whitby — Graph

°F

Whitby Temperature Yesterday

Maximum temperature yesterday: 64 °F (at 3:54 PM)
Minimum temperature yesterday: 45 °F (at 5:00 AM)
Average temperature yesterday: 55 °F

High & Low Weather Summary for the Past Weeks

 TemperatureHumidityPressure
High84 °F (Sep 10, 4:00 PM)100% (Sep 18, 5:45 AM)30.38 "Hg (Sep 18, 5:45 AM)
Low45 °F (Sep 24, 5:00 AM)22% (Sep 20, 6:00 PM)29.67 "Hg (Sep 10, 6:00 PM)
Average66 °F69%30.09 "Hg
* Reported Sep 10 12:00 AM — Sep 25 12:00 AM, Whitby, Weather by CustomWeather, © 2016

Note: Actual official high and low records may vary slightly from our data, if they occured in-between our weather recording intervals... More about our weather records

Advertising

Whitby Weather History for the Previous 24 Hours

Scroll right to see more
 ConditionsComfort  
Time TempWeatherWind HumidityBarometerVisibility
12:00 AM
Sun, Sep 25
50 °FClear.5 mph76%30.26 "Hg15 mi
11:00 PM
Sat, Sep 24
50 °FClear.5 mph76%30.26 "Hg15 mi
10:00 PM52 °FClear.5 mph72%30.25 "Hg15 mi
9:00 PM55 °FClear.7 mph63%30.25 "Hg15 mi
8:00 PM57 °FClear.2 mph51%30.24 "Hg15 mi
7:00 PM61 °FPassing clouds.6 mph45%30.24 "Hg15 mi
6:00 PM63 °FSunny.9 mph37%30.24 "Hg15 mi
5:00 PM64 °FPassing clouds.10 mph34%30.23 "Hg15 mi
4:00 PM64 °FPassing clouds.9 mph34%30.23 "Hg15 mi
3:54 PM64 °FPassing clouds.14 mph34%30.23 "Hg15 mi
3:00 PM63 °FPassing clouds.2 mph37%30.24 "Hg15 mi
2:00 PM63 °FPassing clouds.10 mph32%30.26 "Hg15 mi
1:00 PM63 °FPassing clouds.8 mph34%30.28 "Hg15 mi
12:00 PM61 °FPassing clouds.10 mph39%30.29 "Hg15 mi
11:00 AM59 °FPassing clouds.10 mph42%30.30 "Hg15 mi
10:00 AM55 °FPassing clouds.9 mph55%30.30 "Hg15 mi
9:00 AM52 °FPassing clouds.7 mph67%30.29 "Hg15 mi
8:00 AM48 °FPassing clouds.7 mph76%30.29 "Hg15 mi
7:00 AM45 °FPassing clouds.7 mph87%30.27 "Hg15 mi
6:00 AM45 °FPassing clouds.6 mph87%30.25 "Hg15 mi
5:00 AM45 °FPassing clouds.6 mph87%30.24 "Hg15 mi
4:00 AM46 °FPassing clouds.6 mph87%30.22 "Hg15 mi
3:00 AM46 °FPassing clouds.6 mph87%30.22 "Hg15 mi
2:00 AM48 °FPassing clouds.6 mph87%30.22 "Hg15 mi
1:00 AM50 °FPassing clouds.6 mph82%30.22 "Hg15 mi
Weather by CustomWeather, © 2016

See weather overviewHow to use our weather pages